Location: Castelbiague
(43.0361°N, 0.9246°E)
Time: 11:18:39
(UTC+00:00)

Meteor 2-20 Rocket - Pass Details

Date: 17 June 2021
Orbit: 940 x 960 km, 82.5° (Epoch: 27 July)

Event Time Altitude Azimuth Distance (km) Brightness Sun altitude
Exits shadow 20:47:56 - 181° (S) 3,477 7.0 -10.6°
Reaches altitude 10° 20:50:04 10° 181° (S) 2,671 6.4 -10.8°
Maximum altitude 20:56:10 78° 96° (E) 975 4.4 -11.6°
Drops below altitude 10° 21:02:16 10° 11° (N) 2,675 7.4 -12.3°
Sets 21:04:46 0° 10° (N) 3,622 8.1 -12.6°
